Oklahoma City, OK

10:10 PM CDT on May 23, 2017 (GMT -0500)
Will Rogers World

Weather History for KOKC - December, 2012

Change the Weather History Date:

Saturday, December 22, 2012

  Actual Average Record
Temperature  
Mean Temperature 46 °F 39 °F  
Max Temperature 59 °F 49 °F 75 °F (1896)
Min Temperature 33 °F 29 °F -4 °F (1989)
Degree Days  
Heating Degree Days 19 26  
Month to date heating degree days 375 523  
Since 1 July heating degree days 917 1122  
Moisture  
Dew Point 15 °F    
Average Humidity 36    
Maximum Humidity 57    
Minimum Humidity 15    
Precipitation  
Precipitation 0.00 in 0.06 in 2.01 in (1932)
Month to date precipitation 0.24 1.40  
Year to date precipitation 29.04 36.04  
Snow  
Snow 0.00 in 0.10 in 3.90 in (1913)
Month to date snowfall T 1.4  
Since 1 July snowfall T 1.8  
Snow Depth -    
Sea Level Pressure  
Sea Level Pressure 30.07 in    
Wind  
Wind Speed 13 mph (South)    
Max Wind Speed 25 mph    
Max Gust Speed 30 mph    
Visibility 10 miles    
Events      
T = Trace of Precipitation, MM = Missing Value Source: NWS Daily Summary

Daily Weather History Graph

Daily Weather History Graph

Search for Another Location

Airport or City:

Trip Planner

Search our weather history database for the weather conditions in past years. The results will help you decide how hot, cold, wet, or windy it might be!

Date:

Astronomy

Dec. 22, 2012 Rise Set
Actual Time 7:36 AM CST 5:22 PM CST
Civil Twilight 7:07 AM CST 5:50 PM CST
Nautical Twilight 6:36 AM CST 6:22 PM CST
Astronomical Twilight 6:05 AM CST 6:53 PM CST
Moon 1:34 PM CST (12/22) 2:29 AM CST (12/22)
Length of Visible Light 10h 42m
Length of Day
9h 46m
Waxing Gibbous, 74% of the Moon is Illuminated
Dec 22
Waxing Gibbous
Dec 28
Full
Jan 4
Last Quarter
Jan 11
New
Jan 18
First Quarter

Hourly Weather History & Observations

Time (CST) Temp. Windchill Dew Point Humidity Pressure Visibility Wind Dir Wind Speed Gust Speed Precip Events Conditions
12:52 AM 41.0 °F 33.9 °F 9.0 °F 27% 30.19 in 10.0 mi SSW 12.7 mph - N/A   Partly Cloudy
1:52 AM 37.9 °F 30.9 °F 10.0 °F 32% 30.18 in 10.0 mi SSW 10.4 mph - N/A   Partly Cloudy
2:52 AM 41.0 °F 34.3 °F 8.6 °F 26% 30.18 in 10.0 mi SSW 11.5 mph - N/A   Partly Cloudy
3:52 AM 41.0 °F 32.8 °F 10.0 °F 28% 30.16 in 10.0 mi SSW 16.1 mph - N/A   Partly Cloudy
4:52 AM 35.1 °F 27.4 °F 10.0 °F 35% 30.16 in 10.0 mi South 10.4 mph - N/A   Partly Cloudy
5:52 AM 35.6 °F 29.2 °F 12.2 °F 38% 30.14 in 10.0 mi SSE 8.1 mph - N/A   Partly Cloudy
6:52 AM 35.1 °F 26.9 °F 12.0 °F 39% 30.16 in 10.0 mi South 11.5 mph - N/A   Scattered Clouds
7:52 AM 36.0 °F 29.0 °F 12.0 °F 37% 30.16 in 10.0 mi South 9.2 mph - N/A   Scattered Clouds
8:52 AM 39.9 °F 35.1 °F 12.9 °F 33% 30.15 in 10.0 mi SSE 6.9 mph - N/A   Scattered Clouds
9:52 AM 48.0 °F - 9.0 °F 21% 30.15 in 10.0 mi SSW 19.6 mph 26.5 mph N/A   Scattered Clouds
10:52 AM 50.0 °F - 9.0 °F 19% 30.14 in 10.0 mi SSW 19.6 mph - N/A   Mostly Cloudy
11:52 AM 55.9 °F - 10.0 °F 16% 30.09 in 10.0 mi SSW 21.9 mph - N/A   Mostly Cloudy
12:52 PM 57.0 °F - 10.0 °F 15% 30.05 in 10.0 mi SSW 19.6 mph 25.3 mph N/A   Mostly Cloudy
1:52 PM 57.0 °F - 10.9 °F 16% 30.02 in 10.0 mi SSW 21.9 mph 26.5 mph N/A   Mostly Cloudy
2:52 PM 59.0 °F - 12.0 °F 16% 30.00 in 10.0 mi South 16.1 mph - N/A   Mostly Cloudy
3:52 PM 57.0 °F - 10.0 °F 15% 29.99 in 10.0 mi SSW 19.6 mph - N/A   Overcast
4:52 PM 54.0 °F - 12.9 °F 20% 29.98 in 10.0 mi South 17.3 mph - N/A   Overcast
5:52 PM 52.0 °F - 16.0 °F 24% 29.97 in 10.0 mi South 11.5 mph - N/A   Mostly Cloudy
6:52 PM 46.0 °F 42.5 °F 19.9 °F 35% 29.99 in 10.0 mi South 6.9 mph - N/A   Mostly Cloudy
7:52 PM 46.0 °F 42.5 °F 21.0 °F 37% 29.99 in 10.0 mi South 6.9 mph - N/A   Mostly Cloudy
8:52 PM 43.0 °F 39.5 °F 23.0 °F 45% 29.99 in 10.0 mi South 5.8 mph - N/A   Mostly Cloudy
9:52 PM 45.0 °F 40.1 °F 28.0 °F 52% 29.97 in 10.0 mi SSE 9.2 mph - N/A   Mostly Cloudy
10:52 PM 43.0 °F 38.2 °F 28.9 °F 58% 29.96 in 10.0 mi SSE 8.1 mph - N/A   Scattered Clouds
11:52 PM 43.0 °F 38.2 °F 30.0 °F 60% 29.93 in 10.0 mi SSE 8.1 mph - N/A   Mostly Cloudy